Location: Buena Vista
(37.7110°N, 119.7938°W)
Time: 23:50:24
(UTC+00:00)

Envisat - Pass Details

Date: 15 August 2024
Orbit: 762 x 764 km, 98.3° (Epoch: 08 September)

Event Time Altitude Azimuth Distance (km) Brightness Sun altitude
Rises 12:01:53 0° 0° (N) 3,233 6.7 -14.1°
Reaches altitude 10° 12:04:27 10° 350° (N) 2,303 5.7 -13.6°
Maximum altitude 12:08:44 29° 292° (WNW) 1,388 4.0 -12.9°
Enters shadow 12:11:33 17° 245° (WSW) 1,838 4.3 -12.4°
